Stündliche Wetter Kytaihorod

Heute, 28 Januar, Donnerstag

Zeit Temperatur Niederschläge Wind Luftdruck Luftfeuchtigkeit
00:00 -4°C° 0.7 mm 7 m/S 732 mmHg 96%
01:00 -4°C° 0.7 mm 6 m/S 731 mmHg 97%
02:00 -4°C° 0 mm 6 m/S 731 mmHg 95%
03:00 -3°C° 0.1 mm 6 m/S 731 mmHg 95%
04:00 -2°C° 0.1 mm 5 m/S 731 mmHg 96%
05:00 -2°C° 0.1 mm 4 m/S 730 mmHg 97%
06:00 -2°C° 0.2 mm 5 m/S 730 mmHg 97%
07:00 -2°C° 0.2 mm 5 m/S 730 mmHg 96%
08:00 -4°C° 0 mm 6 m/S 730 mmHg 95%
09:00 -4°C° 0.3 mm 5 m/S 730 mmHg 95%
10:00 -2°C° 0.3 mm 5 m/S 730 mmHg 96%
11:00 -2°C° 0.3 mm 4 m/S 730 mmHg 96%
12:00 -2°C° 0.1 mm 4 m/S 730 mmHg 96%
13:00 -1°C° 0.1 mm 3 m/S 730 mmHg 97%
14:00 0°C° 0.1 mm 3 m/S 729 mmHg 97%
15:00 0°C° 0.2 mm 3 m/S 730 mmHg 97%
16:00 0°C° 0.2 mm 3 m/S 730 mmHg 96%
17:00 -1°C° 0.2 mm 3 m/S 730 mmHg 96%
18:00 -1°C° 0.2 mm 3 m/S 730 mmHg 96%
19:00 -1°C° 0.2 mm 3 m/S 730 mmHg 97%
20:00 -1°C° 0.2 mm 3 m/S 730 mmHg 97%
21:00 -2°C° 0.4 mm 3 m/S 730 mmHg 97%
22:00 -3°C° 0.4 mm 4 m/S 730 mmHg 97%
23:00 -3°C° 0.4 mm 4 m/S 730 mmHg 96%

Morgen, 29 Januar, Freitag

Zeit Temperatur Niederschläge Wind Luftdruck Luftfeuchtigkeit
00:00 -4°C° 0.4 mm 5 m/S 731 mmHg 96%
01:00 -5°C° 0.4 mm 6 m/S 731 mmHg 95%
02:00 -6°C° 0.4 mm 7 m/S 731 mmHg 95%
03:00 -7°C° 0.2 mm 7 m/S 732 mmHg 94%
04:00 -7°C° 0.2 mm 7 m/S 732 mmHg 94%
05:00 -6°C° 0.2 mm 6 m/S 732 mmHg 93%
06:00 -8°C° 0.1 mm 6 m/S 733 mmHg 91%
07:00 -9°C° 0.1 mm 6 m/S 733 mmHg 89%
08:00 -9°C° 0.1 mm 6 m/S 734 mmHg 87%
09:00 -8°C° 0 mm 7 m/S 734 mmHg 82%
10:00 -7°C° 0 mm 7 m/S 734 mmHg 78%
11:00 -6°C° 0 mm 8 m/S 734 mmHg 73%
12:00 -6°C° 0 mm 8 m/S 733 mmHg 73%
13:00 -6°C° 0 mm 8 m/S 733 mmHg 73%
14:00 -5°C° 0 mm 8 m/S 732 mmHg 73%
15:00 -6°C° 0 mm 7 m/S 732 mmHg 78%
16:00 -6°C° 0 mm 7 m/S 732 mmHg 83%
17:00 -5°C° 0 mm 6 m/S 732 mmHg 89%
18:00 -5°C° 0 mm 6 m/S 733 mmHg 89%
19:00 -5°C° 0 mm 6 m/S 733 mmHg 90%
20:00 -5°C° 0 mm 5 m/S 733 mmHg 91%
21:00 -6°C° 0 mm 5 m/S 733 mmHg 91%
22:00 -6°C° 0 mm 5 m/S 734 mmHg 90%
23:00 -7°C° 0 mm 5 m/S 734 mmHg 90%

übermorgen, 30 Januar, Samstag

Zeit Temperatur Niederschläge Wind Luftdruck Luftfeuchtigkeit
00:00 -7°C° 0 mm 4 m/S 734 mmHg 90%
01:00 -8°C° 0 mm 4 m/S 734 mmHg 89%
02:00 -7°C° 0 mm 3 m/S 734 mmHg 89%
03:00 -7°C° 0 mm 3 m/S 734 mmHg 88%
04:00 -6°C° 0 mm 2 m/S 734 mmHg 88%
05:00 -4°C° 0 mm 1 m/S 734 mmHg 87%
06:00 -5°C° 0 mm 2 m/S 734 mmHg 87%
07:00 -4°C° 0 mm 2 m/S 734 mmHg 87%
08:00 -5°C° 0 mm 3 m/S 734 mmHg 88%
09:00 -4°C° 0 mm 4 m/S 733 mmHg 90%
10:00 -4°C° 0 mm 5 m/S 733 mmHg 92%
11:00 -3°C° 0 mm 6 m/S 733 mmHg 94%
12:00 -2°C° 0.3 mm 6 m/S 732 mmHg 96%
13:00 -2°C° 0.3 mm 6 m/S 732 mmHg 97%
14:00 -2°C° 0.3 mm 6 m/S 731 mmHg 98%
15:00 -2°C° 0.6 mm 6 m/S 731 mmHg 98%
16:00 0°C° 0.6 mm 5 m/S 731 mmHg 98%
17:00 0°C° 0.6 mm 5 m/S 730 mmHg 98%
18:00 0°C° 0.1 mm 4 m/S 730 mmHg 98%
19:00 0°C° 0.1 mm 4 m/S 730 mmHg 98%
20:00 +1°C° 0.1 mm 3 m/S 730 mmHg 98%
21:00 -1°C° 0 mm 4 m/S 730 mmHg 98%
22:00 -1°C° 0 mm 5 m/S 730 mmHg 97%
23:00 -2°C° 0 mm 6 m/S 729 mmHg 97%

31 Januar, Sonntag

Zeit Temperatur Niederschläge Wind Luftdruck Luftfeuchtigkeit
00:00 -2°C° 0 mm 6 m/S 729 mmHg 97%
01:00 -2°C° 0 mm 6 m/S 729 mmHg 96%
02:00 -1°C° 0 mm 7 m/S 729 mmHg 96%
03:00 -2°C° 0 mm 7 m/S 729 mmHg 94%
04:00 -2°C° 0 mm 6 m/S 729 mmHg 93%
05:00 -2°C° 0 mm 6 m/S 729 mmHg 91%
06:00 -3°C° 0 mm 6 m/S 730 mmHg 88%
07:00 -4°C° 0 mm 6 m/S 731 mmHg 85%
08:00 -4°C° 0 mm 6 m/S 732 mmHg 82%
09:00 -4°C° 0 mm 6 m/S 733 mmHg 82%
10:00 -5°C° 0 mm 5 m/S 734 mmHg 81%
11:00 -5°C° 0 mm 5 m/S 735 mmHg 80%
12:00 -4°C° 0 mm 4 m/S 736 mmHg 80%
13:00 -2°C° 0 mm 3 m/S 736 mmHg 79%
14:00 -2°C° 0 mm 3 m/S 737 mmHg 79%
15:00 -3°C° 0 mm 2 m/S 737 mmHg 81%
16:00 -1°C° 0 mm 1 m/S 738 mmHg 84%
17:00 -1°C° 0 mm 1 m/S 738 mmHg 86%
18:00 -1°C° 0 mm 1 m/S 738 mmHg 86%
19:00 -1°C° 0 mm 1 m/S 738 mmHg 86%
20:00 -1°C° 0 mm 1 m/S 739 mmHg 86%
21:00 -3°C° 0 mm 2 m/S 738 mmHg 85%
22:00 -3°C° 0 mm 2 m/S 738 mmHg 84%
23:00 -4°C° 0 mm 3 m/S 738 mmHg 83%

1 Februar, Montag

Zeit Temperatur Niederschläge Wind Luftdruck Luftfeuchtigkeit
00:00 -4°C° 0.2 mm 4 m/S 738 mmHg 86%
01:00 -5°C° 0.2 mm 5 m/S 737 mmHg 89%
02:00 -5°C° 0.2 mm 5 m/S 737 mmHg 93%
03:00 -4°C° 0.9 mm 6 m/S 735 mmHg 94%
04:00 -4°C° 0.9 mm 6 m/S 734 mmHg 95%
05:00 -3°C° 0.9 mm 6 m/S 733 mmHg 96%
06:00 -2°C° 1.6 mm 7 m/S 732 mmHg 96%
07:00 -1°C° 1.6 mm 7 m/S 732 mmHg 96%
08:00 0°C° 1.6 mm 7 m/S 731 mmHg 97%
09:00 0°C° 0.8 mm 7 m/S 730 mmHg 97%
10:00 +2°C° 0.8 mm 7 m/S 729 mmHg 97%
11:00 +2°C° 0.8 mm 7 m/S 729 mmHg 97%
12:00 +2°C° 0 mm 7 m/S 729 mmHg 97%
13:00 +2°C° 0 mm 7 m/S 729 mmHg 96%
14:00 +2°C° 0 mm 7 m/S 729 mmHg 96%
15:00 -1°C° 0 mm 7 m/S 730 mmHg 95%
16:00 -2°C° 0 mm 7 m/S 731 mmHg 93%
17:00 -4°C° 0 mm 7 m/S 732 mmHg 92%
18:00 -4°C° 0 mm 7 m/S 734 mmHg 90%
19:00 -5°C° 0 mm 6 m/S 735 mmHg 89%
20:00 -5°C° 0 mm 6 m/S 736 mmHg 87%
21:00 -5°C° 0 mm 5 m/S 737 mmHg 87%
22:00 -5°C° 0 mm 5 m/S 738 mmHg 86%
23:00 -5°C° 0 mm 4 m/S 739 mmHg 86%

2 Februar, Dienstag

Zeit Temperatur Niederschläge Wind Luftdruck Luftfeuchtigkeit
00:00 -5°C° 0 mm 4 m/S 740 mmHg 86%
01:00 -5°C° 0 mm 3 m/S 741 mmHg 86%
02:00 -5°C° 0 mm 3 m/S 742 mmHg 87%
03:00 -5°C° 0 mm 2 m/S 742 mmHg 87%
04:00 -5°C° 0 mm 2 m/S 742 mmHg 87%
05:00 -5°C° 0 mm 2 m/S 743 mmHg 87%
06:00 -5°C° 0 mm 2 m/S 744 mmHg 85%
07:00 -6°C° 0 mm 2 m/S 744 mmHg 84%
08:00 -6°C° 0 mm 2 m/S 745 mmHg 83%
09:00 -3°C° 0 mm 1 m/S 745 mmHg 79%
10:00 -2°C° 0 mm 1 m/S 746 mmHg 74%
11:00 -2°C° 0 mm 1 m/S 746 mmHg 70%
12:00 -1°C° 0 mm 1 m/S 746 mmHg 69%
13:00 -1°C° 0 mm 1 m/S 746 mmHg 68%
14:00 0°C° 0 mm 1 m/S 745 mmHg 67%
15:00 0°C° 0 mm 1 m/S 746 mmHg 70%
16:00 -1°C° 0 mm 1 m/S 746 mmHg 74%
17:00 -1°C° 0 mm 1 m/S 746 mmHg 77%
18:00 -1°C° 0 mm 1 m/S 746 mmHg 79%
19:00 -1°C° 0 mm 1 m/S 746 mmHg 80%
20:00 -2°C° 0 mm 1 m/S 746 mmHg 81%
21:00 -3°C° 0 mm 0 m/S 746 mmHg 81%
22:00 -3°C° 0 mm 0 m/S 746 mmHg 81%
23:00 -3°C° 0 mm 0 m/S 746 mmHg 82%
Mehr zeigen

Wir brauchen deine Erlaubnis

Meteoprog und unser Service Anbieter werden persönliche Daten aufbewahren, so wie Cookies, Geräte Bezeichnung oder ähnliche Technologien von deinem Gerät und Prozess, so wie Persönliche Daten Inhalte und Werbungen, genauso wie social Media und den Verkehr zu analysieren.

  • Aufbewahrung und/oder Zugang zu deiner Geräte Informationen.

    Cookies, Geräte Bezeichnung oder andere Informationen, können aufbewahrt oder Zugang zu deinem Gerät erhalten, für den Grund, der oben angegeben wird.

  • Personalisierte Werbung und Inhalte, Messungen, Einblick in das Publikum und Produkt Entwicklung.

    Werbungen und Inhalte können personalisiert werden, basierend auf ein Profil. Mehr Daten können besser personalisierte Werbungen und Inhalte hinzufügen. Werbung und Inhalte können gezeigt und gemessen werden. Einblicke über das Publikum, welche die Werbung gesehen haben und den Inhalt, können abgeleitet werden. So wie Daten können genutzt werden, um es zu verbessern oder die Benutzer Erfahrung zu verbessern das System und die Software.

Wenn du “Ich stimme zu” klickst, erlaubst du uns, die Cookies zu benutzen die Geräte Bezeichnung, den Web oder ähnliche Technologien zu benutzen. Deine Settings, können in deinem Gerät bei deinem Browser geändert werden.

Für den bestimmten Zweck, berechtigten Interessen beruhen darauf, mehr als auf den Inhalt. Du kannst mehr darüber in unseren Privaten und Cookie Politik lesen.